Regional Weather Roundup
Issued by NWS San Diego, CA

Home | Current Version | Previous Version | Text Only | Print | Product List | Glossary On
Versions: 1 2 3 4 5 6 7 8 9 10 11 12 13 14 15 16 17 18 19 20 21 22 23 24 25 26 27
000
ASUS46 KSGX 042111
RWRSGX

SAN DIEGO HOURLY WEATHER ROUNDUP
NATIONAL WEATHER SERVICE SAN DIEGO CA
100 PM PST SUN DEC 04 2016

NOTE: "FAIR" INDICATES FEW OR NO CLOUDS BELOW 12,000 FEET WITH NO
SIGNIFICANT WEATHER AND/OR OBSTRUCTIONS TO VISIBILITY.

CAZ042-043-060-061-PZZ750-775-042200-

GREATER SAN DIEGO AREA

CITY           SKY/WX    TMP DP  RH WIND       PRES   REMARKS
SAN DIEGO AP   MOSUNNY   69  28  21 NW8       30.02F
NATIONAL CITY    N/A     73  32  22 CALM      30.01F
CHULA VISTA      N/A     75  37  25 W3        29.93F
IMPERIAL BEACH SUNNY     69  40  34 W8        30.02F
BROWN FIELD    SUNNY     72  26  18 W7        30.01
MIRAMAR MCAS   SUNNY     76  30  18 NW6       30.01F
MONTGOMERY FLD SUNNY     75  27  17 W6        30.01F

$$

NORTH SAN DIEGO COUNTY

CITY           SKY/WX    TMP DP  RH WIND       PRES   REMARKS
CAMP PENDLETON SUNNY     74  23  15 S5        30.00F
OCEANSIDE AP   SUNNY     73  26  17 W7        30.00F
OCEANSIDE HBR    N/A     62  48  59 CALM      30.03F
VISTA            N/A     73  31  21 CALM      30.00F
CARLSBAD       SUNNY     71  26  18 SW3       30.00F
DEL MAR          N/A     72  31  22 CALM      30.04F
LA JOLLA SCRIP   N/A     64  35  34 W1        30.01F
FALLBROOK        N/A     73  25  16 CALM      30.01F
ESCONDIDO        N/A     73  27  18 CALM      30.03F
SAN MARCOS       N/A     74  28  18 CALM      30.04F
POWAY            N/A     76  32  20 CALM      30.04F

$$

EAST SAN DIEGO COUNTY

CITY           SKY/WX    TMP DP  RH WIND       PRES   REMARKS
RAMONA         SUNNY     73  23  15 NW10      30.03F
SANTEE LAKES     N/A     77  29  17 E1        30.00F
LA MESA          N/A     74  24  15 CALM      29.95F
JAMUL            N/A     75  26  16 CALM      30.03F
DESCANSO N       N/A     66  25  21 W8        29.97F
CAMPO            N/A     72  17  12 SW8       30.00F

$$

ORANGE COUNTY AND THE LOS ANGELES BASIN

CITY           SKY/WX    TMP DP  RH WIND       PRES   REMARKS
JOHN WAYNE AP  MOSUNNY   67  45  45 SW7       30.02F
LAGUNA BEACH     N/A     64  43  46 S2        29.98F
LAKE FOREST FR   N/A     76  25  15 CALM      29.90F
HUNTINGTON BCH   N/A     66  55  66 SW3       30.04F
LOS ALAMITOS   MOSUNNY   67  46  46 SW5       30.02F
FULLERTON      MOSUNNY   71  41  33 CALM      30.01F
LONG BEACH     SUNNY     66  46  48 SE5       30.02F
L.A. AP        MOSUNNY   64  48  56 W10       30.02F
L.A. DOWNTOWN  SUNNY     71  38  29 W5        30.01F

$$

THE INLAND EMPIRE

CITY           SKY/WX    TMP DP  RH WIND       PRES   REMARKS
CHINO          MOSUNNY   75  25  15 VRB3      30.02F
ONTARIO        MOSUNNY   71  19  14 SW5       30.01F
SAN BERNARDINO SUNNY     75  19  12 CALM      30.02F
RIVERSIDE AP   SUNNY     73  23  15 VRB3      30.01F
MORENO VALLEY    N/A     76  27  16 W3        28.14F
MARCH ARB      SUNNY     73  16  11 CALM      30.02F
HORSETHIEF CYN   N/A     75  17  11 CALM      30.05F
PERRIS           N/A     75  24  15 CALM      30.05F
HEMET EAST       N/A     70  15  12 CALM      30.10F
FRENCH VALLEY  NOT AVBL
TEMECULA         N/A     76  32  20 S2        30.03F

$$

SAN BERNARDINO AND RIVERSIDE COUNTY MOUNTAINS

CITY           SKY/WX    TMP DP  RH WIND       PRES   REMARKS
BIG BEAR AP    SUNNY     55  14  19 SW9G16    30.18F
ANGELUS OAKS     N/A     58  24  27 CALM      30.01F
PINE COVE        N/A     56  19  23 W5        30.04F

$$

SOUTHERN DESERT INCLUDING THE COACHELLA VALLEY

CITY           SKY/WX    TMP DP  RH WIND       PRES   REMARKS
PALM SPRINGS   SUNNY     72  21  14 VRB5      30.03F
PALM DESERT      N/A     74  25  16 CALM      26.88S
THERMAL        SUNNY     73  16  11 S5        30.00F
BLYTHE         SUNNY     70  12  10 N12       30.03F
IMPERIAL AP    SUNNY     74  19  12 NE6       30.01F
EL CENTRO NAS  SUNNY     74  14  10 CALM      30.03F
YUMA AZ        SUNNY     72  13  10 N12       30.01
MEXICALI       SUNNY     72  12  10 NW6       30.03F

$$

UPPER DESERT

CITY           SKY/WX    TMP DP  RH WIND       PRES   REMARKS
VICTORVILLE AP SUNNY     61   9  12 CALM      30.07F
HESPERIA         N/A     65  15  14 SE2       30.22F
PALMDALE       SUNNY     63  12  13 CALM      30.06F
LANCASTER      SUNNY     62  14  15 CALM      30.05F
EDWARDS AFB    MOSUNNY   56  11  16 E3        30.04F
DAGGETT        SUNNY     62   8  12 CALM      30.06F
29 PALMS N     SUNNY     67   8  10 CALM      30.11F
NEEDLES        SUNNY     69  16  13 N12G17    30.03F

$$

REGIONAL REPORTS

CITY           SKY/WX    TMP DP  RH WIND       PRES   REMARKS
SANTA BARBARA  SUNNY     66  47  50 SW5       30.01F
LAS VEGAS NV   MOSUNNY   58  11  15 E3        30.07F
PHOENIX AZ     SUNNY     67  14  13 CALM      29.99F
TIJUANA        SUNNY     73  19  13 W7        30.03F
ENSENADA NW      N/A     66  32  28 W3        29.98F

$$

OFFSHORE ISLANDS

CITY           SKY/WX    TMP DP  RH WIND       PRES   REMARKS
CATALINA ARPT  SUNNY     67  54  63 VRB3      30.05F
SAN NICOLAS IS SUNNY     65  39  38 NW8       30.03F

$$

MARINE AND OFFSHORE BUOY REPORTS

STATION/POSITION SKY/WX   TEMP    WIND        PRES    SWELL
                          AIR SEA DIR/SP/G            HT/PER/DIR
                          (F)     (DEG/KT/KT) (MB)    (FT/S/D)
TANNER BANKS               60 62  330/ 16/ 19 1017.2F  10/310/17
S CLEMENTE BASIN           60 62  260/  8/  8 1016.7F   5/280/17
SAN NICOLAS IS.               59                N/A     8/300/17
SO. S. ROSA ISLA           58 59  320/ 19/ 25 1016.7F  10/300/16
W. S. BARBARA CH           57 58  320/ 19/ 23 1016.8F  11/300/16
M. S. BARBARA CH                  240/  8/ 12 1016.5F
S. MONICA BASIN            61 61   90/  4/  6 1016.3F   3/280/17
S PEDRO CHANNEL               62                N/A     2/270/17
CMP PENDLETON NS              61                N/A     2/230/18
OCEANSIDE OFFSHR              63                N/A     2/200/14
TORREY PINES OTR              63                N/A     3/270/17
POINT LOMA SOUTH              62                N/A     3/270/18

$$





USA.gov is the U.S. government's official web portal to all federal, state and local government web resources and services.